EW7186 Weather Reports


Display with metric or nautical units.
time (UTC)temp
F
wind
direction
speed
MPH
gust
MPH
rain 1hr
in
rain 24hr
in
rain mn
in
humidity
%
barometer
mb
20260504190112 75 0 0.0 4.0 0.00 0.00 0.00 32 1015.4
20260504184551 75 0 0.0 4.0 0.00 0.00 0.00 31 1015.6
20260504183105 74 0 0.0 2.0 0.00 0.00 0.00 31 1015.8
20260504181602 75 0 1.0 6.0 0.00 0.00 0.00 31 1016.1
20260504180059 74 0 0.0 5.0 0.00 0.00 0.00 34 1016.0
20260504174557 75 0 0.0 6.0 0.00 0.00 0.00 36 1016.2
20260504173057 74 0 1.0 5.0 0.00 0.00 0.00 32 1016.4
20260504171553 74 345 1.0 5.0 0.00 0.00 0.00 32 1016.5
20260504140106 66 231 1.0 5.0 0.00 0.00 0.00 49 1017.4
20260504081551 52 0 0.0 0.0 0.00 0.00 0.00 84 1016.7
20260504050105 52 0 0.0 0.0 0.00 0.00 0.00 85 1017.4
20260504044600 52 0 0.0 0.0 0.00 0.00 0.00 85 1017.3
20260504043055 53 0 0.0 0.0 0.00 0.00 0.00 84 1017.4
20260504041555 53 0 0.0 0.0 0.00 0.00 0.00 83 1017.3
20260504040057 53 0 0.0 0.0 0.00 0.00 0.00 86 1017.4
20260504034557 53 0 0.0 0.0 0.00 0.01 0.00 85 1017.3
20260504033051 54 0 0.0 0.0 0.00 0.01 0.00 85 1017.2
20260504031553 54 0 0.0 0.0 0.00 0.01 0.00 83 1017.3
20260504030056 55 0 0.0 2.0 0.00 0.01 0.00 82 1017.3
20260504024608 56 0 0.0 0.0 0.00 0.01 0.00 82 1017.3
20260504023053 56 0 0.0 0.0 0.00 0.01 0.00 82 1017.2
20260504021554 56 0 0.0 0.0 0.00 0.01 0.00 82 1017.1
20260504020051 57 0 0.0 0.0 0.00 0.01 0.00 80 1017.0
20260504014601 58 0 0.0 0.0 0.00 0.01 0.00 78 1016.9
20260504013056 59 0 0.0 0.0 0.00 0.01 0.00 74 1016.8
20260504011550 60 0 0.0 0.0 0.00 0.01 0.00 69 1016.7
20260504010104 61 0 0.0 0.0 0.00 0.01 0.00 59 1016.4
20260504004550 62 0 0.0 0.0 0.00 0.01 0.00 53 1016.2
20260504003055 63 0 0.0 0.0 0.00 0.01 0.00 49 1016.1
20260504001554 64 0 0.0 0.0 0.00 0.01 0.00 47 1016.1
20260504000135 65 0 0.0 0.0 0.00 0.01 0.00 47 1016.0
20260503234559 66 0 0.0 0.0 0.00 0.01 0.00 48 1016.0
20260503233053 67 0 0.0 0.0 0.00 0.01 0.00 46 1016.0
20260503231553 67 0 0.0 0.0 0.00 0.01 0.00 44 1015.9
20260503230050 68 0 0.0 2.0 0.00 0.01 0.00 45 1016.0
20260503224553 69 0 0.0 4.0 0.00 0.01 0.00 44 1016.1
20260503223052 68 0 2.0 10.0 0.00 0.01 0.00 41 1016.2
20260503221555 68 240 0.0 5.0 0.00 0.01 0.00 44 1016.1
20260503220053 68 338 1.0 6.0 0.00 0.01 0.00 46 1016.1
20260503214550 68 0 2.0 9.0 0.00 0.01 0.00 43 1016.3
20260503213051 68 0 0.0 8.0 0.00 0.01 0.00 41 1016.2
20260503211601 68 0 0.0 6.0 0.00 0.01 0.00 41 1016.3
20260503210050 68 0 1.0 6.0 0.00 0.01 0.00 41 1016.2
20260503204555 68 0 0.0 6.0 0.00 0.01 0.00 42 1016.3
20260503203105 67 0 0.0 5.0 0.00 0.01 0.00 48 1016.3
20260503201554 67 0 1.0 8.0 0.00 0.01 0.00 46 1016.8
20260503200053 66 0 2.0 5.0 0.00 0.01 0.00 45 1016.9
20260503194556 66 2 0.0 7.0 0.00 0.01 0.00 45 1017.1
20260503193054 65 316 0.0 8.0 0.00 0.01 0.00 48 1017.4
20260503191553 64 0 4.0 7.0 0.00 0.01 0.00 51 1017.7